Simultaneous Nadir Overpasses (SNOs) Predictions

Prediction of SNOs between FY3D and AQUA Satellite Orbit:

Table of predicted SNOs for the next 14.0 days since TLE Epoch: 3/4/2023
Index Date (FY3D) Time (FY3D) Lat,Lon (FY3D) SZA (FY3D ) Date (AQUA) Time (AQUA) Lat,Lon (AQUA) SZA (AQUA ) Distance(km) Time Diff (sec)
1 03/05/2023 14:49:04 -78.20, 120.10 95.13 03/05/2023 14:49:33 -78.20, 120.17 95.14 1.56 29
2 03/05/2023 15:39:35 77.58, -69.36 84.06 03/05/2023 15:38:45 77.58, -69.39 84.07 0.59 50
3 03/08/2023 04:36:01 80.54, 72.92 87.78 03/08/2023 04:37:14 80.80, 73.84 87.85 33.08 73
4 03/08/2023 05:25:24 -77.91, -97.42 96.53 03/08/2023 05:25:20 -77.91, -97.45 96.53 0.52 4
5 03/10/2023 19:11:16 78.31,-125.99 82.98 03/10/2023 19:11:56 78.30,-125.89 82.96 2.34 40
6 03/10/2023 20:01:47 -77.75, 44.33 97.77 03/10/2023 20:01:08 -77.75, 44.34 97.76 0.30 39
7 03/13/2023 09:47:35 78.00, 16.64 81.54 03/13/2023 09:47:39 78.01, 16.59 81.55 1.13 4
8 03/13/2023 10:37:09 -74.87,-163.92 102.16 03/13/2023 10:35:55 -74.75,-164.58 102.25 23.69 74
9 03/15/2023 23:33:20 -78.20, -10.81 99.24 03/15/2023 23:34:06 -78.20, -10.91 99.24 2.37 46



Historial Predications of SNOs between FY3D and AQUA
